******** Week 353 almanac for PRN-1 ******** ID: 1 Health: 0 Eccentricity: 0.001371383667 Time of Applicability(s): 405504 Orbital Inclination(rad): 0.9583748704 Rate of Right Ascen(r/s): -8.126052768e-09 SQRT(A) (m 1/2): 5153.582031 Right Ascen at Week(rad): -2.270586304 Argument of Perigee(rad): -0.01497503804 Mean Anom(rad): -1.080819419 Af0(s): 0.0002713227539 Af1(s/s): -3.637979e-12 week: 353 ******** Week 353 almanac for PRN-2 ******** ID: 2 Health: 0 Eccentricity: 0.01697874069 Time of Applicability(s): 405504 Orbital Inclination(rad): 0.9639115823 Rate of Right Ascen(r/s): -7.943188008e-09 SQRT(A) (m 1/2): 5153.564453 Right Ascen at Week(rad): -2.433346684 Argument of Perigee(rad): -0.8495336159 Mean Anom(rad): 0.3104846774 Af0(s): 1.35661377e-05 Af1(s/s): 7.275958e-12 week: 353 ******** Week 353 almanac for PRN-3 ******** ID: 3 Health: 0 Eccentricity: 0.006346225738 Time of Applicability(s): 405504 Orbital Inclination(rad): 0.9925359035 Rate of Right Ascen(r/s): -7.760323248e-09 SQRT(A) (m 1/2): 5153.608887 Right Ascen at Week(rad): -1.284542629 Argument of Perigee(rad): 1.211066223 Mean Anom(rad): 2.966144351 Af0(s): 0.0004725537964 Af1(s/s): -1.091394e-11 week: 353 ******** Week 353 almanac for PRN-4 ******** ID: 4 Health: 0 Eccentricity: 0.003731250763 Time of Applicability(s): 405504 Orbital Inclination(rad): 0.970556835 Rate of Right Ascen(r/s): -7.497455156e-09 SQRT(A) (m 1/2): 5153.708984 Right Ascen at Week(rad): -0.2133308131 Argument of Perigee(rad): -2.911875661 Mean Anom(rad): -0.2590734761 Af0(s): 3.014697266e-05 Af1(s/s): 3.637979e-12 week: 353 ******** Week 353 almanac for PRN-5 ******** ID: 5 Health: 0 Eccentricity: 0.00537443161 Time of Applicability(s): 405504 Orbital Inclination(rad): 0.9791135716 Rate of Right Ascen(r/s): -7.920329913e-09 SQRT(A) (m 1/2): 5153.633301 Right Ascen at Week(rad): -1.343712493 Argument of Perigee(rad): 1.426239985 Mean Anom(rad): 0.3457557494 Af0(s): -0.0001793744873 Af1(s/s): 0 week: 353 ******** Week 353 almanac for PRN-6 ******** ID: 6 Health: 0 Eccentricity: 0.00385761261 Time of Applicability(s): 405504 Orbital Inclination(rad): 0.9873287578 Rate of Right Ascen(r/s): -7.828897533e-09 SQRT(A) (m 1/2): 5153.562988 Right Ascen at Week(rad): -2.321364589 Argument of Perigee(rad): -0.6247702267 Mean Anom(rad): -1.934872961 Af0(s): -0.000476322168 Af1(s/s): -3.637979e-12 week: 353 ******** Week 353 almanac for PRN-7 ******** ID: 7 Health: 0 Eccentricity: 0.02017641067 Time of Applicability(s): 405504 Orbital Inclination(rad): 0.9507948482 Rate of Right Ascen(r/s): -7.840326581e-09 SQRT(A) (m 1/2): 5153.579102 Right Ascen at Week(rad): 0.7952611808 Argument of Perigee(rad): -2.005212122 Mean Anom(rad): -2.845130644 Af0(s): -0.0001070217529 Af1(s/s): -3.637979e-12 week: 353 ******** Week 353 almanac for PRN-8 ******** ID: 8 Health: 0 Eccentricity: 0.01141309738 Time of Applicability(s): 405504 Orbital Inclination(rad): 0.9444731695 Rate of Right Ascen(r/s): -7.783181343e-09 SQRT(A) (m 1/2): 5153.621094 Right Ascen at Week(rad): 2.843837471 Argument of Perigee(rad): 0.5003443861 Mean Anom(rad): 0.007189411425 Af0(s): 0.0003979400391 Af1(s/s): -3.637979e-12 week: 353 ******** Week 353 almanac for PRN-9 ******** ID: 9 Health: 0 Eccentricity: 0.003371715546 Time of Applicability(s): 405504 Orbital Inclination(rad): 0.9646665885 Rate of Right Ascen(r/s): -7.566029441e-09 SQRT(A) (m 1/2): 5153.536133 Right Ascen at Week(rad): -0.2772205887 Argument of Perigee(rad): 2.070669958 Mean Anom(rad): 0.5811858477 Af0(s): 0.0006089688477 Af1(s/s): 0 week: 353 ******** Week 353 almanac for PRN-10 ******** ID: 10 Health: 0 Eccentricity: 0.01097679138 Time of Applicability(s): 405504 Orbital Inclination(rad): 0.9920864951 Rate of Right Ascen(r/s): -7.760323248e-09 SQRT(A) (m 1/2): 5153.606934 Right Ascen at Week(rad): -1.287052575 Argument of Perigee(rad): -2.267070432 Mean Anom(rad): 1.999476547 Af0(s): -0.0004604950073 Af1(s/s): -3.637979e-12 week: 353 ******** Week 353 almanac for PRN-11 ******** ID: 11 Health: 0 Eccentricity: 0.002235889435 Time of Applicability(s): 405504 Orbital Inclination(rad): 0.9641812274 Rate of Right Ascen(r/s): -8.057478483e-09 SQRT(A) (m 1/2): 5153.727539 Right Ascen at Week(rad): -2.301552792 Argument of Perigee(rad): -2.249162629 Mean Anom(rad): -0.9712506472 Af0(s): -0.0003738224609 Af1(s/s): 1.455192e-11 week: 353 ******** Week 353 almanac for PRN-12 ******** ID: 12 Health: 0 Eccentricity: 0.009068965912 Time of Applicability(s): 405504 Orbital Inclination(rad): 0.9588482473 Rate of Right Ascen(r/s): -7.748894201e-09 SQRT(A) (m 1/2): 5153.507812 Right Ascen at Week(rad): 1.913227578 Argument of Perigee(rad): 1.534247812 Mean Anom(rad): 2.819049975 Af0(s): -0.0004793368652 Af1(s/s): 0 week: 353 ******** Week 353 almanac for PRN-13 ******** ID: 13 Health: 0 Eccentricity: 0.009896278381 Time of Applicability(s): 405504 Orbital Inclination(rad): 0.9762493419 Rate of Right Ascen(r/s): -7.463168014e-09 SQRT(A) (m 1/2): 5153.630859 Right Ascen at Week(rad): -0.1028272713 Argument of Perigee(rad): 1.002134369 Mean Anom(rad): -0.2677856331 Af0(s): 0.0005449065308 Af1(s/s): 0 week: 353 ******** Week 353 almanac for PRN-14 ******** ID: 14 Health: 0 Eccentricity: 0.006502151489 Time of Applicability(s): 405504 Orbital Inclination(rad): 0.9421662062 Rate of Right Ascen(r/s): -7.977475151e-09 SQRT(A) (m 1/2): 5153.583496 Right Ascen at Week(rad): 1.859316168 Argument of Perigee(rad): -2.763042074 Mean Anom(rad): 2.623456189 Af0(s): 0.0005758071777 Af1(s/s): 3.637979e-12 week: 353 ******** Week 353 almanac for PRN-15 ******** ID: 15 Health: 0 Eccentricity: 0.01659107208 Time of Applicability(s): 405504 Orbital Inclination(rad): 0.9424358513 Rate of Right Ascen(r/s): -7.851755628e-09 SQRT(A) (m 1/2): 5153.628418 Right Ascen at Week(rad): -0.4200781672 Argument of Perigee(rad): 1.493842623 Mean Anom(rad): -1.002631715 Af0(s): 0.000297701355 Af1(s/s): 3.637979e-12 week: 353 ******** Week 353 almanac for PRN-16 ******** ID: 16 Health: 0 Eccentricity: 0.01504421234 Time of Applicability(s): 405504 Orbital Inclination(rad): 0.9580213358 Rate of Right Ascen(r/s): -7.760323248e-09 SQRT(A) (m 1/2): 5153.567383 Right Ascen at Week(rad): 1.930287497 Argument of Perigee(rad): 0.921341968 Mean Anom(rad): 1.004348829 Af0(s): 0.0001492275146 Af1(s/s): 7.275958e-12 week: 353 ******** Week 353 almanac for PRN-17 ******** ID: 17 Health: 0 Eccentricity: 0.01282835007 Time of Applicability(s): 405504 Orbital Inclination(rad): 0.9602504016 Rate of Right Ascen(r/s): -7.623174678e-09 SQRT(A) (m 1/2): 5153.522949 Right Ascen at Week(rad): 2.947762423 Argument of Perigee(rad): -1.135134923 Mean Anom(rad): -0.1058442999 Af0(s): -2.637860107e-05 Af1(s/s): -1.091394e-11 week: 353 ******** Week 353 almanac for PRN-18 ******** ID: 18 Health: 0 Eccentricity: 0.005687713623 Time of Applicability(s): 405504 Orbital Inclination(rad): 0.9722945476 Rate of Right Ascen(r/s): -7.977475151e-09 SQRT(A) (m 1/2): 5153.599609 Right Ascen at Week(rad): -2.325749691 Argument of Perigee(rad): -2.857088654 Mean Anom(rad): -2.086648301 Af0(s): -0.0003557342773 Af1(s/s): 1.091394e-11 week: 353 ******** Week 353 almanac for PRN-19 ******** ID: 19 Health: 0 Eccentricity: 0.01096916199 Time of Applicability(s): 405504 Orbital Inclination(rad): 0.9594474585 Rate of Right Ascen(r/s): -7.623174678e-09 SQRT(A) (m 1/2): 5153.665039 Right Ascen at Week(rad): 2.991661762 Argument of Perigee(rad): 2.915312512 Mean Anom(rad): 1.758884992 Af0(s): 0.0005418918335 Af1(s/s): 3.637979e-12 week: 353 ******** Week 353 almanac for PRN-21 ******** ID: 21 Health: 0 Eccentricity: 0.0005512237549 Time of Applicability(s): 405504 Orbital Inclination(rad): 0.9619701379 Rate of Right Ascen(r/s): -8.057478483e-09 SQRT(A) (m 1/2): 5153.690918 Right Ascen at Week(rad): -1.276904184 Argument of Perigee(rad): -0.4844368255 Mean Anom(rad): 2.671487839 Af0(s): 0.0003007160522 Af1(s/s): 7.275958e-12 week: 353 ******** Week 353 almanac for PRN-22 ******** ID: 22 Health: 0 Eccentricity: 0.01223087311 Time of Applicability(s): 405504 Orbital Inclination(rad): 0.9574520851 Rate of Right Ascen(r/s): -7.794610391e-09 SQRT(A) (m 1/2): 5153.571777 Right Ascen at Week(rad): 1.93362735 Argument of Perigee(rad): -0.9973185834 Mean Anom(rad): 0.5476180338 Af0(s): -4.59741333e-05 Af1(s/s): 3.637979e-12 week: 353 ******** Week 353 almanac for PRN-23 ******** ID: 23 Health: 0 Eccentricity: 0.006000041962 Time of Applicability(s): 405504 Orbital Inclination(rad): 0.9870770891 Rate of Right Ascen(r/s): -7.828897533e-09 SQRT(A) (m 1/2): 5153.654297 Right Ascen at Week(rad): -1.318936606 Argument of Perigee(rad): -2.748415328 Mean Anom(rad): 3.09901907 Af0(s): 0.000474061145 Af1(s/s): 3.637979e-12 week: 353 ******** Week 353 almanac for PRN-24 ******** ID: 24 Health: 0 Eccentricity: 0.01782560348 Time of Applicability(s): 405504 Orbital Inclination(rad): 0.9348678133 Rate of Right Ascen(r/s): -7.966046103e-09 SQRT(A) (m 1/2): 5153.59082 Right Ascen at Week(rad): 0.6875885376 Argument of Perigee(rad): 1.129634164 Mean Anom(rad): -1.864978339 Af0(s): -0.0001281246338 Af1(s/s): 1.455192e-11 week: 353 ******** Week 353 almanac for PRN-25 ******** ID: 25 Health: 0 Eccentricity: 0.01293563843 Time of Applicability(s): 405504 Orbital Inclination(rad): 0.9471276753 Rate of Right Ascen(r/s): -7.897471818e-09 SQRT(A) (m 1/2): 5153.681641 Right Ascen at Week(rad): 1.819890315 Argument of Perigee(rad): 1.149695382 Mean Anom(rad): 2.670880014 Af0(s): 0.0003557342773 Af1(s/s): -3.637979e-12 week: 353 ******** Week 353 almanac for PRN-26 ******** ID: 26 Health: 0 Eccentricity: 0.01096820831 Time of Applicability(s): 405504 Orbital Inclination(rad): 0.927875018 Rate of Right Ascen(r/s): -8.137481816e-09 SQRT(A) (m 1/2): 5153.625977 Right Ascen at Week(rad): 1.746201937 Argument of Perigee(rad): 0.7008588197 Mean Anom(rad): 1.839826822 Af0(s): -0.0002464515015 Af1(s/s): -7.275958e-12 week: 353 ******** Week 353 almanac for PRN-27 ******** ID: 27 Health: 0 Eccentricity: 0.0141620636 Time of Applicability(s): 405504 Orbital Inclination(rad): 0.9536051489 Rate of Right Ascen(r/s): -7.680319916e-09 SQRT(A) (m 1/2): 5153.620117 Right Ascen at Week(rad): 2.87544549 Argument of Perigee(rad): 0.8656523984 Mean Anom(rad): 0.09687710361 Af0(s): -1.507348633e-05 Af1(s/s): -7.275958e-12 week: 353 ******** Week 353 almanac for PRN-28 ******** ID: 28 Health: 0 Eccentricity: 0.0004048347473 Time of Applicability(s): 405504 Orbital Inclination(rad): 0.9617664061 Rate of Right Ascen(r/s): -7.748894201e-09 SQRT(A) (m 1/2): 5153.706055 Right Ascen at Week(rad): 0.7689996245 Argument of Perigee(rad): 0.3812998369 Mean Anom(rad): -2.855582761 Af0(s): -0.0004823515625 Af1(s/s): 3.637979e-12 week: 353 ******** Week 353 almanac for PRN-29 ******** ID: 29 Health: 0 Eccentricity: 0.003247261047 Time of Applicability(s): 405504 Orbital Inclination(rad): 0.9628869311 Rate of Right Ascen(r/s): -7.634603726e-09 SQRT(A) (m 1/2): 5153.742676 Right Ascen at Week(rad): 2.964341474 Argument of Perigee(rad): 2.752532283 Mean Anom(rad): -0.02780003123 Af0(s): -0.0003105138184 Af1(s/s): 7.275958e-12 week: 353 ******** Week 353 almanac for PRN-30 ******** ID: 30 Health: 0 Eccentricity: 0.007872581482 Time of Applicability(s): 405504 Orbital Inclination(rad): 0.9360482594 Rate of Right Ascen(r/s): -8.011762293e-09 SQRT(A) (m 1/2): 5153.71875 Right Ascen at Week(rad): 0.7869298975 Argument of Perigee(rad): -2.348623832 Mean Anom(rad): -2.950302704 Af0(s): 7.009171143e-05 Af1(s/s): 1.091394e-11 week: 353 ******** Week 353 almanac for PRN-31 ******** ID: 31 Health: 0 Eccentricity: 0.01087331772 Time of Applicability(s): 405504 Orbital Inclination(rad): 0.9545459106 Rate of Right Ascen(r/s): -7.817468486e-09 SQRT(A) (m 1/2): 5153.70166 Right Ascen at Week(rad): 0.8192861812 Argument of Perigee(rad): 0.9311008722 Mean Anom(rad): 2.372814364 Af0(s): -0.0001364150513 Af1(s/s): 3.637979e-12 week: 353 ******** Week 353 almanac for PRN-32 ******** ID: 32 Health: 0 Eccentricity: 0.009183883667 Time of Applicability(s): 405504 Orbital Inclination(rad): 0.9677465343 Rate of Right Ascen(r/s): -7.531742299e-09 SQRT(A) (m 1/2): 5153.671387 Right Ascen at Week(rad): -0.2603842507 Argument of Perigee(rad): -2.027572064 Mean Anom(rad): 0.7082070221 Af0(s): -0.0001281246338 Af1(s/s): 1.818989e-11 week: 353